Location: Newark
(13.9670°N, 101.5170°E)
Time: 17:14:04
(UTC+00:00)

OTV 5 (USA 277) - Visible Passes

Search period start: 16 July 2019 00:00
Search period end: 26 July 2019 00:00
Orbit: 299 x 335 km, 54.5° (Epoch: 13 July)

Date Brightness Start Highest point End Pass type
(mag) Time Alt. Az. Time Alt. Az. Time Alt. Az.
16 Jul ? 12:52:31 10° N 12:54:36 22° NE 12:54:36 22° NE visible
17 Jul ? 13:06:34 10° NW 13:09:10 65° W 13:09:10 65° W visible
18 Jul ? 13:22:12 10° W 13:23:47 14° WSW 13:23:49 14° WSW visible
20 Jul ? 12:16:15 10° WNW 12:18:44 28° WSW 12:21:12 10° S visible
